K5KVN-2 Weather Reports


time (UTC)temp
C
wind
direction
speed
KPH
gust
KPH
rain 1hr
cm
rain 24hr
cm
rain mn
cm
humidity
%
barometer
mb
20260906114014 23 128 0.0 0.0 0.00 0.00 0.00 82 1015.3
20260906113455 23 86 0.0 0.0 0.00 0.00 0.00 82 1015.2
20260906112014 23 86 0.0 0.0 0.00 0.00 0.00 81 1015.1
20260906111015 23 86 0.0 0.0 0.00 0.00 0.00 82 1015.0
20260906110451 23 105 0.0 0.0 0.00 0.00 0.00 82 1015.1
20260906105013 23 80 0.0 0.0 0.00 0.00 0.00 82 1015.0
20260906104011 23 107 0.0 0.0 0.00 0.00 0.00 82 1015.0
20260906103011 23 57 0.0 0.0 0.00 0.00 0.00 82 1015.0
20260906102013 23 201 0.0 0.0 0.00 0.00 0.00 82 1014.9
20260906101006 23 201 0.0 0.0 0.00 0.00 0.00 80 1015.0
20260906100446 23 201 0.0 0.0 0.00 0.00 0.00 80 1014.9
20260906095004 24 201 0.0 0.0 0.00 0.00 0.00 79 1014.7
20260906094004 24 201 0.0 0.0 0.00 0.00 0.00 78 1014.8
20260906093002 25 288 0.0 0.0 0.00 0.00 0.00 77 1014.7
20260906092003 25 288 0.0 0.0 0.00 0.00 0.00 76 1014.6
20260906091002 25 288 0.0 0.0 0.00 0.00 0.00 77 1014.5
20260906090001 24 288 0.0 0.0 0.00 0.00 0.00 77 1014.4
20260906084001 24 288 0.0 0.0 0.00 0.00 0.00 76 1014.3
20260906083001 24 288 0.0 0.0 0.00 0.00 0.00 77 1014.1
20260906082002 24 288 0.0 0.0 0.00 0.00 0.00 76 1014.2
20260906081001 24 288 0.0 0.0 0.00 0.00 0.00 75 1014.2
20260906080002 24 288 0.0 0.0 0.00 0.00 0.00 75 1014.3
20260906075001 25 288 0.0 0.0 0.00 0.00 0.00 75 1014.2
20260906074002 25 288 0.0 0.0 0.00 0.00 0.00 74 1014.3
20260906073006 25 288 0.0 0.0 0.00 0.00 0.00 74 1014.4
20260906072002 25 288 0.0 0.0 0.00 0.00 0.00 73 1014.4
20260906071003 25 288 0.0 0.0 0.00 0.00 0.00 73 1014.4
20260906070002 25 288 0.0 0.0 0.00 0.00 0.00 73 1014.5
20260906065002 25 288 0.0 0.0 0.00 0.00 0.00 73 1014.3
20260906064001 25 288 0.0 0.0 0.00 0.00 0.00 73 1014.5
20260906063000 25 288 0.0 0.0 0.00 0.00 0.00 74 1014.5
20260906062003 25 288 0.0 0.0 0.00 0.00 0.00 74 1014.5
20260906061000 25 288 0.0 0.0 0.00 0.00 0.00 70 1014.5
20260906060001 26 196 0.0 0.0 0.00 0.00 0.00 70 1014.5
20260906054957 26 324 0.0 0.0 0.00 0.00 0.00 67 1014.3
20260906053958 26 265 0.0 0.0 0.00 0.00 0.00 66 1014.4
20260906052954 27 170 0.0 0.0 0.00 0.00 0.00 63 1014.3
20260906051952 27 170 0.0 0.0 0.00 0.00 0.00 63 1014.3
20260906050953 27 170 0.0 0.0 0.00 0.00 0.00 63 1014.2
20260906045951 28 170 0.0 0.0 0.00 0.00 0.00 62 1014.3
20260906045432 28 170 0.0 0.0 0.00 0.00 0.00 61 1014.2
20260906043950 28 170 0.0 0.0 0.00 0.00 0.00 60 1014.1
20260906042949 28 181 0.0 0.0 0.00 0.00 0.00 60 1014.2
20260906041949 29 168 0.0 1.6 0.00 0.00 0.00 59 1014.5
20260906040949 28 161 1.6 4.8 0.00 0.00 0.00 60 1014.2
20260906040425 28 122 0.0 4.8 0.00 0.00 0.00 61 1014.2
20260906034948 28 92 0.0 1.6 0.00 0.00 0.00 62 1014.4
20260906033944 28 102 0.0 1.6 0.00 0.00 0.00 62 1014.2
20260906033428 28 42 0.0 0.0 0.00 0.00 0.00 61 1014.3
20260906031940 28 33 0.0 0.0 0.00 0.00 0.00 61 1014.3
20260906031419 28 33 0.0 0.0 0.00 0.00 0.00 61 1014.4
20260906025938 29 33 0.0 1.6 0.00 0.00 0.00 58 1014.3
20260906024938 29 33 0.0 1.6 0.00 0.00 0.00 57 1014.2
20260906023938 30 140 0.0 1.6 0.00 0.00 0.00 57 1014.1
20260906023418 30 74 0.0 3.2 0.00 0.00 0.00 55 1014.1
20260906021936 30 59 0.0 3.2 0.00 0.00 0.00 55 1014.0
20260906020936 31 178 0.0 0.0 0.00 0.00 0.00 54 1013.6
20260906015935 31 178 0.0 0.0 0.00 0.00 0.00 52 1013.5
20260906014934 31 178 0.0 3.2 0.00 0.00 0.00 51 1013.4
20260906013934 31 127 0.0 3.2 0.00 0.00 0.00 51 1013.2
20260906012933 31 172 0.0 1.6 0.00 0.00 0.00 51 1013.1
20260906010933 33 172 1.6 3.2 0.00 0.00 0.00 47 1012.9
20260906010418 33 172 3.2 4.8 0.00 0.00 0.00 46 1012.6
20260906004931 33 163 3.2 6.4 0.00 0.00 0.00 45 1012.7
20260906004411 34 134 3.2 6.4 0.00 0.00 0.00 43 1012.8
20260906002931 34 126 6.4 11.3 0.00 0.00 0.00 43 1012.7
20260906001930 35 149 8.0 11.3 0.00 0.00 0.00 41 1012.8
20260906000932 35 149 1.6 11.3 0.00 0.00 0.00 41 1012.8
20260905235930 35 120 1.6 3.2 0.00 0.00 0.00 39 1012.6
20260905234931 36 136 3.2 6.4 0.00 0.00 0.00 38 1012.6
20260905234416 36 120 1.6 6.4 0.00 0.00 0.00 38 1012.6
20260905232927 36 131 3.2 11.3 0.00 0.00 0.00 37 1012.7
20260905231928 36 122 4.8 12.9 0.00 0.00 0.00 36 1012.7
20260905230926 36 92 3.2 12.9 0.00 0.00 0.00 36 1012.8
20260905225926 37 138 3.2 9.7 0.00 0.00 0.00 36 1012.7
20260905224926 36 92 3.2 8.0 0.00 0.00 0.00 36 1012.5
20260905223928 37 72 1.6 4.8 0.00 0.00 0.00 36 1012.5
20260905222926 36 74 1.6 6.4 0.00 0.00 0.00 35 1012.6
20260905221927 36 355 3.2 6.4 0.00 0.00 0.00 36 1012.5
20260905220927 36 65 1.6 9.7 0.00 0.00 0.00 35 1012.7
20260905215932 37 54 3.2 14.5 0.00 0.00 0.00 35 1012.7
20260905214927 37 116 3.2 9.7 0.00 0.00 0.00 36 1012.8
20260905213926 36 171 1.6 8.0 0.00 0.00 0.00 36 1012.8
20260905213404 36 355 0.0 3.2 0.00 0.00 0.00 37 1012.9
20260905211927 36 9 1.6 3.2 0.00 0.00 0.00 36 1013.1
20260905211417 36 119 1.6 6.4 0.00 0.00 0.00 35 1013.3
20260905205925 37 128 3.2 9.7 0.00 0.00 0.00 35 1013.4
20260905204925 37 79 3.2 11.3 0.00 0.00 0.00 34 1013.6
20260905203925 38 0 4.8 16.1 0.00 0.00 0.00 33 1013.6
20260905202924 38 171 6.4 17.7 0.00 0.00 0.00 34 1013.8
20260905201924 37 188 4.8 14.5 0.00 0.00 0.00 35 1013.9
20260905200927 37 177 8.0 14.5 0.00 0.00 0.00 34 1014.1
20260905200404 37 213 4.8 14.5 0.00 0.00 0.00 35 1014.3
20260905194921 37 82 8.0 17.7 0.00 0.00 0.00 34 1014.4
20260905193923 37 257 4.8 12.9 0.00 0.00 0.00 35 1014.4
20260905192924 37 175 3.2 8.0 0.00 0.00 0.00 35 1014.6
20260905192357 37 355 3.2 14.5 0.00 0.00 0.00 36 1014.8
20260905191406 36 101 4.8 12.9 0.00 0.00 0.00 38 1014.9
20260905185922 36 319 4.8 11.3 0.00 0.00 0.00 40 1015.1
20260905184922 36 168 6.4 16.1 0.00 0.00 0.00 39 1015.0
20260905183921 36 40 4.8 12.9 0.00 0.00 0.00 39 1015.2
20260905182923 36 187 6.4 14.5 0.00 0.00 0.00 40 1015.3
20260905181919 35 126 3.2 14.5 0.00 0.00 0.00 40 1015.5
20260905180915 37 37 4.8 16.1 0.00 0.00 0.00 38 1015.6
20260905175915 36 5 3.2 12.9 0.00 0.00 0.00 39 1015.9
20260905174916 36 49 4.8 9.7 0.00 0.00 0.00 40 1016.0
20260905173915 36 82 6.4 16.1 0.00 0.00 0.00 40 1016.2
20260905172915 36 355 3.2 9.7 0.00 0.00 0.00 40 1016.3
20260905171919 36 314 6.4 14.5 0.00 0.00 0.00 41 1016.5
20260905170913 36 261 3.2 8.0 0.00 0.00 0.00 43 1016.4
20260905170405 35 90 6.4 14.5 0.00 0.00 0.00 43 1016.5
20260905164912 35 171 4.8 9.7 0.00 0.00 0.00 45 1016.7
20260905163909 34 301 1.6 6.4 0.00 0.00 0.00 46 1016.8
20260905162909 33 214 4.8 9.7 0.00 0.00 0.00 48 1016.7
20260905161906 33 152 4.8 11.3 0.00 0.00 0.00 47 1016.8
20260905160906 34 260 6.4 12.9 0.00 0.00 0.00 46 1016.8
20260905155907 33 296 3.2 11.3 0.00 0.00 0.00 48 1016.8
20260905153901 33 43 4.8 8.0 0.00 0.00 0.00 49 1016.8
20260905152903 32 187 3.2 9.7 0.00 0.00 0.00 52 1016.8
20260905151901 32 290 4.8 11.3 0.00 0.00 0.00 54 1016.9
20260905151344 31 172 3.2 9.7 0.00 0.00 0.00 55 1016.8
20260905150346 31 206 4.8 9.7 0.00 0.00 0.00 58 1016.8
20260905144901 31 221 4.8 8.0 0.00 0.00 0.00 57 1016.6
20260905143902 30 166 1.6 6.4 0.00 0.00 0.00 60 1016.6
20260905142903 30 129 1.6 6.4 0.00 0.00 0.00 63 1016.7
20260905141902 29 142 1.6 3.2 0.00 0.00 0.00 64 1016.5
20260905140902 28 135 1.6 4.8 0.00 0.00 0.00 67 1016.6
20260905135901 27 126 1.6 4.8 0.00 0.00 0.00 71 1016.7
20260905134901 26 53 0.0 4.8 0.00 0.00 0.00 73 1016.7
20260905134340 26 64 0.0 3.2 0.00 0.00 0.00 75 1016.6
20260905132900 25 65 0.0 1.6 0.00 0.00 0.00 77 1016.6
20260905131902 25 98 0.0 1.6 0.00 0.00 0.00 79 1016.6
20260905130901 25 98 0.0 1.6 0.00 0.00 0.00 79 1016.7
20260905125903 24 98 0.0 1.6 0.00 0.00 0.00 80 1016.5
20260905125351 23 44 0.0 3.2 0.00 0.00 0.00 81 1016.5
20260905123902 23 84 0.0 0.0 0.00 0.00 0.00 83 1016.4
20260905122902 23 84 0.0 0.0 0.00 0.00 0.00 83 1016.3
20260905121901 23 84 0.0 0.0 0.00 0.00 0.00 84 1016.3
20260905120902 23 90 0.0 0.0 0.00 0.00 0.00 84 1016.2
20260905115904 22 90 0.0 1.6 0.00 0.00 0.00 85 1016.1
20260905114903 22 252 0.0 1.6 0.00 0.00 0.00 84 1016.0